Time,TemperatureF,DewpointF,PressureIn,WindDirection,WindDirectionDegrees,WindSpeedMPH,WindSpeedGustMPH,Humidity,HourlyPrecipIn,Conditions,Clouds,dailyrainin,SolarRadiationWatts/m^2,SoftwareType,DateUTC
2013-05-26 00:08:00,47.1,41.9,29.93,ENE,64,6.0,16.0,82,0.00,,,0.00,0,Wunderground v.1.15,2013-05-26 06:08:00,
2013-05-26 00:14:00,47.1,42.2,29.93,ENE,71,7.0,16.0,83,0.00,,,0.00,0,Wunderground v.1.15,2013-05-26 06:14:00,
2013-05-26 00:22:00,46.9,41.4,29.93,ENE,70,7.0,16.0,81,0.00,,,0.00,0,Wunderground v.1.15,2013-05-26 06:22:00,
2013-05-26 00:28:00,46.6,41.4,29.94,East,81,7.0,16.0,82,0.00,,,0.00,0,Wunderground v.1.15,2013-05-26 06:28:00,
2013-05-26 01:00:00,45.8,41.2,29.94,East,85,4.0,16.0,84,0.00,,,0.00,0,Wunderground v.1.15,2013-05-26 07:00:00,
2013-05-26 01:06:00,45.4,40.8,29.94,East,85,4.0,16.0,84,0.00,,,0.00,0,Wunderground v.1.15,2013-05-26 07:06:00,
2013-05-26 01:12:00,45.3,41.1,29.94,ENE,78,5.0,16.0,85,0.00,,,0.00,0,Wunderground v.1.15,2013-05-26 07:12:00,
2013-05-26 01:20:00,45.4,41.2,29.94,ENE,62,4.0,4.0,85,0.00,,,0.00,0,Wunderground v.1.15,2013-05-26 07:20:00,
2013-05-26 01:56:00,44.6,41.3,29.93,ESE,104,6.0,16.0,88,0.00,,,0.00,0,Wunderground v.1.15,2013-05-26 07:56:00,
2013-05-26 02:08:00,43.8,40.8,29.93,ESE,102,8.0,10.0,89,0.00,,,0.00,0,Wunderground v.1.15,2013-05-26 08:08:00,
2013-05-26 02:16:00,43.6,40.6,29.93,ESE,102,11.0,12.0,89,0.00,,,0.00,0,Wunderground v.1.15,2013-05-26 08:16:00,
2013-05-26 02:36:00,44.0,40.1,29.93,ESE,104,8.0,8.0,86,0.00,,,0.00,0,Wunderground v.1.15,2013-05-26 08:36:00,
2013-05-26 03:04:00,43.4,40.4,29.93,East,79,4.0,7.0,89,0.00,,,0.00,0,Wunderground v.1.15,2013-05-26 09:04:00,
2013-05-26 03:18:00,43.3,40.3,29.92,ENE,70,3.0,7.0,89,0.00,,,0.00,0,Wunderground v.1.15,2013-05-26 09:18:00,
2013-05-26 03:42:00,42.6,40.2,29.93,East,89,5.0,7.0,91,0.00,,,0.00,0,Wunderground v.1.15,2013-05-26 09:42:00,
2013-05-26 04:08:00,40.4,38.3,29.92,ESE,102,8.0,8.0,92,0.00,,,0.00,0,Wunderground v.1.15,2013-05-26 10:08:00,
2013-05-26 04:20:00,40.1,38.2,29.93,East,96,8.0,8.0,93,0.00,,,0.00,0,Wunderground v.1.15,2013-05-26 10:20:00,
2013-05-26 04:30:00,40.1,38.2,29.93,East,97,8.0,8.0,93,0.00,,,0.00,0,Wunderground v.1.15,2013-05-26 10:30:00,
2013-05-26 04:44:00,40.3,38.7,29.93,East,95,6.0,7.0,94,0.00,,,0.00,0,Wunderground v.1.15,2013-05-26 10:44:00,
2013-05-26 04:52:00,40.6,39.0,29.93,East,100,4.0,7.0,94,0.00,,,0.00,0,Wunderground v.1.15,2013-05-26 10:52:00,
2013-05-26 05:02:00,40.3,38.4,29.93,NE,43,1.0,7.0,93,0.00,,,0.00,0,Wunderground v.1.15,2013-05-26 11:02:00,
2013-05-26 05:10:00,40.7,39.1,29.93,ESE,102,2.0,7.0,94,0.00,,,0.00,0,Wunderground v.1.15,2013-05-26 11:10:00,
2013-05-26 05:18:00,40.4,38.5,29.94,ESE,102,6.0,7.0,93,0.00,,,0.00,0,Wunderground v.1.15,2013-05-26 11:18:00,
2013-05-26 05:26:00,40.1,38.2,29.94,ESE,102,6.0,7.0,93,0.00,,,0.00,0,Wunderground v.1.15,2013-05-26 11:26:00,
2013-05-26 06:14:00,40.3,38.2,29.94,NE,44,4.0,7.0,92,0.00,,,0.00,12,Wunderground v.1.15,2013-05-26 12:14:00,
2013-05-26 06:36:00,41.1,39.0,29.93,ESE,115,8.0,8.0,92,0.00,,,0.00,19,Wunderground v.1.15,2013-05-26 12:36:00,
2013-05-26 06:50:00,41.5,38.5,29.93,East,99,11.0,11.0,89,0.00,,,0.00,23,Wunderground v.1.15,2013-05-26 12:50:00,
2013-05-26 06:56:00,41.1,38.1,29.93,ESE,102,9.0,11.0,89,0.00,,,0.00,25,Wunderground v.1.15,2013-05-26 12:56:00,
2013-05-26 07:02:00,40.8,38.4,29.93,ESE,109,10.0,10.0,91,0.00,,,0.00,26,Wunderground v.1.15,2013-05-26 13:02:00,
2013-05-26 07:22:00,41.3,38.9,29.93,East,82,8.0,8.0,91,0.00,,,0.00,33,Wunderground v.1.15,2013-05-26 13:22:00,
2013-05-26 07:28:00,41.5,39.1,29.92,ENE,59,8.0,8.0,91,0.00,,,0.00,35,Wunderground v.1.15,2013-05-26 13:28:00,
2013-05-26 07:38:00,42.4,39.7,29.92,ENE,59,3.0,7.0,90,0.00,,,0.00,39,Wunderground v.1.15,2013-05-26 13:38:00,
2013-05-26 07:46:00,43.2,39.6,29.92,ENE,59,1.0,7.0,87,0.00,,,0.00,44,Wunderground v.1.15,2013-05-26 13:46:00,
2013-05-26 07:52:00,43.7,40.1,29.91,ENE,59,1.0,7.0,87,0.00,,,0.00,46,Wunderground v.1.15,2013-05-26 13:52:00,
2013-05-26 08:02:00,44.5,40.6,29.91,ENE,59,1.0,7.0,86,0.00,,,0.00,56,Wunderground v.1.15,2013-05-26 14:02:00,
2013-05-26 08:08:00,45.1,40.9,29.91,East,85,2.0,7.0,85,0.00,,,0.00,118,Wunderground v.1.15,2013-05-26 14:08:00,
2013-05-26 08:26:00,46.1,41.5,29.90,ESE,116,4.0,7.0,84,0.00,,,0.00,346,Wunderground v.1.15,2013-05-26 14:26:00,
2013-05-26 08:32:00,46.4,41.8,29.90,ESE,115,4.0,7.0,84,0.00,,,0.00,373,Wunderground v.1.15,2013-05-26 14:32:00,
2013-05-26 08:42:00,47.0,41.8,29.90,ESE,115,4.0,7.0,82,0.00,,,0.00,408,Wunderground v.1.15,2013-05-26 14:42:00,
2013-05-26 08:52:00,47.7,41.8,29.90,ESE,115,4.0,7.0,80,0.00,,,0.00,452,Wunderground v.1.15,2013-05-26 14:52:00,
2013-05-26 09:06:00,48.7,41.8,29.90,ESE,115,2.0,7.0,77,0.00,,,0.00,461,Wunderground v.1.15,2013-05-26 15:06:00,
2013-05-26 09:16:00,49.3,41.7,29.89,ESE,115,1.0,7.0,75,0.00,,,0.00,561,Wunderground v.1.15,2013-05-26 15:16:00,
2013-05-26 09:22:00,49.5,41.6,29.89,ESE,115,2.0,7.0,74,0.00,,,0.00,316,Wunderground v.1.15,2013-05-26 15:22:00,
2013-05-26 09:28:00,49.9,42.3,29.89,ESE,115,1.0,7.0,75,0.00,,,0.00,538,Wunderground v.1.15,2013-05-26 15:28:00,
2013-05-26 09:34:00,50.5,41.8,29.89,ESE,115,0.0,7.0,72,0.00,,,0.00,548,Wunderground v.1.15,2013-05-26 15:34:00,
2013-05-26 09:40:00,51.3,42.2,29.89,ESE,115,0.0,7.0,71,0.00,,,0.00,497,Wunderground v.1.15,2013-05-26 15:40:00,
2013-05-26 09:54:00,53.0,41.1,29.88,WSW,256,2.0,7.0,64,0.00,,,0.00,587,Wunderground v.1.15,2013-05-26 15:54:00,
2013-05-26 10:04:00,53.5,40.4,29.88,WSW,256,2.0,7.0,61,0.00,,,0.00,603,Wunderground v.1.15,2013-05-26 16:04:00,
2013-05-26 10:10:00,53.7,41.0,29.87,WSW,256,2.0,2.0,62,0.00,,,0.00,599,Wunderground v.1.15,2013-05-26 16:10:00,
2013-05-26 10:26:00,55.0,43.0,29.86,WSW,256,1.0,7.0,64,0.00,,,0.00,714,Wunderground v.1.15,2013-05-26 16:26:00,
2013-05-26 10:36:00,55.5,41.8,29.86,WSW,256,2.0,7.0,60,0.00,,,0.00,612,Wunderground v.1.15,2013-05-26 16:36:00,
2013-05-26 10:52:00,56.0,42.7,29.85,WSW,243,2.0,7.0,61,0.00,,,0.00,689,Wunderground v.1.15,2013-05-26 16:52:00,
2013-05-26 11:02:00,56.8,43.1,29.85,WSW,243,2.0,7.0,60,0.00,,,0.00,807,Wunderground v.1.15,2013-05-26 17:02:00,
2013-05-26 11:10:00,56.8,43.1,29.85,West,262,3.0,7.0,60,0.00,,,0.00,803,Wunderground v.1.15,2013-05-26 17:10:00,
2013-05-26 11:20:00,57.0,42.4,29.84,West,271,3.0,7.0,58,0.00,,,0.00,749,Wunderground v.1.15,2013-05-26 17:20:00,
2013-05-26 11:28:00,57.3,43.1,29.84,West,271,3.0,7.0,59,0.00,,,0.00,693,Wunderground v.1.15,2013-05-26 17:28:00,
2013-05-26 11:48:00,57.8,43.1,29.83,WNW,290,3.0,7.0,58,0.00,,,0.00,703,Wunderground v.1.15,2013-05-26 17:48:00,
2013-05-26 12:12:00,59.1,43.4,29.82,WNW,289,3.0,7.0,56,0.00,,,0.00,612,Wunderground v.1.15,2013-05-26 18:12:00,
2013-05-26 12:20:00,59.2,42.6,29.82,WSW,256,4.0,4.0,54,0.00,,,0.00,510,Wunderground v.1.15,2013-05-26 18:20:00,
2013-05-26 12:28:00,59.4,43.2,29.81,West,270,3.0,7.0,55,0.00,,,0.00,360,Wunderground v.1.15,2013-05-26 18:28:00,
2013-05-26 12:34:00,59.4,42.3,29.81,West,270,4.0,7.0,53,0.00,,,0.00,288,Wunderground v.1.15,2013-05-26 18:34:00,
2013-05-26 13:00:00,59.9,43.7,29.80,West,270,3.0,3.0,55,0.00,,,0.00,294,Wunderground v.1.15,2013-05-26 19:00:00,
2013-05-26 13:06:00,60.0,43.8,29.80,West,270,2.0,7.0,55,0.00,,,0.00,292,Wunderground v.1.15,2013-05-26 19:06:00,
2013-05-26 13:44:00,61.8,41.3,29.78,East,100,6.0,7.0,47,0.00,,,0.00,454,Wunderground v.1.15,2013-05-26 19:44:00,
2013-05-26 14:08:00,61.7,40.1,29.77,ENE,76,13.0,17.0,45,0.00,,,0.00,176,Wunderground v.1.15,2013-05-26 20:08:00,
2013-05-26 14:16:00,61.6,38.9,29.78,ENE,63,15.0,20.0,43,0.00,,,0.00,144,Wunderground v.1.15,2013-05-26 20:16:00,
2013-05-26 14:24:00,61.1,37.2,29.78,ENE,60,17.0,23.0,41,0.00,,,0.00,179,Wunderground v.1.15,2013-05-26 20:24:00,
2013-05-26 14:40:00,59.3,37.9,29.78,NNE,19,21.0,21.0,45,0.00,,,0.00,227,Wunderground v.1.15,2013-05-26 20:40:00,
2013-05-26 15:14:00,60.8,38.7,29.78,NNE,16,11.0,11.0,44,0.00,,,0.00,459,Wunderground v.1.15,2013-05-26 21:14:00,
2013-05-26 15:32:00,61.5,36.3,29.77,NNE,21,7.0,7.0,39,0.00,,,0.00,373,Wunderground v.1.15,2013-05-26 21:32:00,
2013-05-26 16:00:00,63.0,39.5,29.75,ESE,102,8.0,8.0,42,0.00,,,0.00,244,Wunderground v.1.15,2013-05-26 22:00:00,
2013-05-26 16:18:00,62.7,40.5,29.75,North,356,5.0,7.0,44,0.00,,,0.00,315,Wunderground v.1.15,2013-05-26 22:18:00,
2013-05-26 16:36:00,62.3,41.8,29.74,West,271,7.0,9.0,47,0.00,,,0.00,190,Wunderground v.1.15,2013-05-26 22:36:00,
2013-05-26 16:58:00,60.8,42.0,29.73,West,267,16.0,17.0,50,0.00,,,0.00,93,Wunderground v.1.15,2013-05-26 22:58:00,
2013-05-26 17:32:00,58.2,43.0,29.74,West,266,22.0,22.0,57,0.00,,,0.00,18,Wunderground v.1.15,2013-05-26 23:32:00,
2013-05-26 18:04:00,46.8,41.3,29.82,SSE,167,37.0,37.0,81,0.17,,,0.03,7,Wunderground v.1.15,2013-05-27 00:04:00,
2013-05-26 18:12:00,46.7,-99.9,29.84,SSE,160,32.0,35.0,255,0.09,,,0.04,7,Wunderground v.1.15,2013-05-27 00:12:00,
2013-05-26 18:36:00,46.4,41.8,29.88,SE,144,26.0,26.0,84,0.32,,,0.12,5,Wunderground v.1.15,2013-05-27 00:36:00,
2013-05-26 18:56:00,45.6,41.0,29.89,ESE,118,15.0,15.0,84,0.13,,,0.18,5,Wunderground v.1.15,2013-05-27 00:56:00,
2013-05-26 19:08:00,45.4,41.2,29.89,NE,35,8.0,8.0,85,0.09,,,0.20,5,Wunderground v.1.15,2013-05-27 01:08:00,
2013-05-26 19:40:00,45.9,41.9,29.83,WNW,290,10.0,10.0,86,0.00,,,0.22,19,Wunderground v.1.15,2013-05-27 01:40:00,
2013-05-26 20:02:00,47.3,42.7,29.85,SE,145,8.0,17.0,84,0.00,,,0.22,30,Wunderground v.1.15,2013-05-27 02:02:00,
2013-05-26 20:24:00,46.4,42.1,29.85,South,171,12.0,14.0,85,0.00,,,0.22,25,Wunderground v.1.15,2013-05-27 02:24:00,
2013-05-26 20:30:00,46.2,41.9,29.85,SSE,162,9.0,14.0,85,0.00,,,0.22,21,Wunderground v.1.15,2013-05-27 02:30:00,
2013-05-26 20:40:00,45.9,41.6,29.86,ENE,58,7.0,14.0,85,0.00,,,0.22,16,Wunderground v.1.15,2013-05-27 02:40:00,
2013-05-26 20:58:00,45.8,41.9,29.87,NE,54,4.0,14.0,86,0.00,,,0.22,5,Wunderground v.1.15,2013-05-27 02:58:00,
2013-05-26 21:10:00,46.0,42.3,29.87,NE,43,6.0,14.0,87,0.00,,,0.22,0,Wunderground v.1.15,2013-05-27 03:10:00,
2013-05-26 21:24:00,45.9,41.9,29.87,NE,46,6.0,14.0,86,0.00,,,0.22,0,Wunderground v.1.15,2013-05-27 03:24:00,
2013-05-26 21:36:00,45.8,41.9,29.87,NE,46,5.0,14.0,86,0.00,,,0.22,0,Wunderground v.1.15,2013-05-27 03:36:00,
2013-05-26 21:52:00,45.9,41.9,29.87,NE,46,2.0,14.0,86,0.00,,,0.22,0,Wunderground v.1.15,2013-05-27 03:52:00,
2013-05-26 22:06:00,45.8,41.9,29.87,NE,46,1.0,14.0,86,0.00,,,0.22,0,Wunderground v.1.15,2013-05-27 04:06:00,
2013-05-26 22:14:00,45.6,41.7,29.88,NE,46,0.0,14.0,86,0.00,,,0.22,0,Wunderground v.1.15,2013-05-27 04:14:00,
2013-05-26 22:22:00,45.5,41.9,29.88,South,183,3.0,14.0,87,0.00,,,0.22,0,Wunderground v.1.15,2013-05-27 04:22:00,
2013-05-26 22:30:00,45.5,42.2,29.88,South,183,3.0,3.0,88,0.00,,,0.22,0,Wunderground v.1.15,2013-05-27 04:30:00,
2013-05-26 22:38:00,45.5,41.9,29.88,South,183,1.0,14.0,87,0.00,,,0.22,0,Wunderground v.1.15,2013-05-27 04:38:00,
2013-05-26 22:46:00,45.4,41.8,29.88,South,183,1.0,14.0,87,0.00,,,0.22,0,Wunderground v.1.15,2013-05-27 04:46:00,
2013-05-26 23:22:00,45.0,41.7,29.88,ENE,64,7.0,14.0,88,0.00,,,0.22,0,Wunderground v.1.15,2013-05-27 05:22:00,
2013-05-26 23:28:00,45.1,41.2,29.88,East,87,8.0,14.0,86,0.00,,,0.22,0,Wunderground v.1.15,2013-05-27 05:28:00,
2013-05-26 23:36:00,45.0,41.1,29.87,East,92,8.0,14.0,86,0.00,,,0.22,0,Wunderground v.1.15,2013-05-27 05:36:00,
2013-05-26 23:50:00,45.0,41.1,29.86,East,91,10.0,14.0,86,0.00,,,0.22,0,Wunderground v.1.15,2013-05-27 05:50:00,
2013-05-26 23:58:00,45.4,41.5,29.87,NE,37,8.0,14.0,86,0.00,,,0.22,0,Wunderground v.1.15,2013-05-27 05:58:00,